HST
1 20580U 90037B   24242.60901044  .00011922  00000-0  54476-3 0  9996
2 20580  28.4668 212.7994 0002488 125.5399 234.5426 15.18990157688207
ISS (ZARYA)
1 25544U 98067A   24243.43343466  .00023737  00000-0  43471-3 0  9992
2 25544  51.6412 307.5019 0011312 297.9666 172.6496 15.49136267470065
CXO
1 25867U 99040B   24244.55236217  .00000872  00000-0  00000-0 0  9994
2 25867  42.7947 147.4522 8816024 300.7014   0.5263  0.37806177 14844